Radiation Dose at Monitoring Post of Fukushima Daini Nuclear Power Station
Date,Time,MP-1(microSv/h),MP-2(microSv/h),MP-3(microSv/h),MP-4(microSv/h),MP-5(microSv/h),MP-6(microSv/h),MP-7(microSv/h),Wind Direction,Wind Velocity(m/s),Rain
2016/02/15,00:00,0.459,0.266,0.479,0.431,0.397,0.219,0.190,north-northwest,6.0,No
2016/02/15,00:10,0.458,0.267,0.478,0.431,0.397,0.219,0.189,north-northwest,4.9,No
2016/02/15,00:20,0.457,0.267,0.478,0.431,0.396,0.219,0.190,northwest,6.1,No
2016/02/15,00:30,0.460,0.265,0.478,0.434,0.398,0.220,0.190,northwest,9.5,No
2016/02/15,00:40,0.457,0.267,0.475,0.432,0.397,0.219,0.190,north-northwest,9.5,No
2016/02/15,00:50,0.459,0.266,0.481,0.431,0.396,0.220,0.190,north-northwest,7.7,No
2016/02/15,01:00,0.459,0.266,0.477,0.433,0.398,0.218,0.191,north,8.7,No
2016/02/15,01:10,0.456,0.268,0.477,0.432,0.398,0.219,0.190,north-northwest,8.2,No
2016/02/15,01:20,0.458,0.267,0.481,0.431,0.396,0.219,0.189,north-northwest,6.0,No
2016/02/15,01:30,0.459,0.267,0.478,0.434,0.397,0.219,0.189,north-northwest,6.7,No
2016/02/15,01:40,0.457,0.267,0.480,0.431,0.398,0.219,0.191,north-northwest,6.3,No
2016/02/15,01:50,0.460,0.265,0.480,0.434,0.397,0.219,0.189,northwest,6.3,No
2016/02/15,02:00,0.458,0.266,0.479,0.432,0.400,0.219,0.190,northwest,9.6,No
2016/02/15,02:10,0.460,0.267,0.481,0.431,0.396,0.219,0.191,northwest,10.7,No
2016/02/15,02:20,0.457,0.267,0.478,0.434,0.397,0.219,0.191,northwest,11.5,No
2016/02/15,02:30,-,-,-,-,-,-,-,-,-,-
2016/02/15,02:40,0.462,0.267,0.483,0.432,0.398,0.219,0.191,northwest,12.0,No
2016/02/15,02:50,0.459,0.267,0.477,0.433,0.398,0.219,0.191,northwest,13.7,No
2016/02/15,03:00,0.460,0.266,0.481,0.433,0.397,0.221,0.190,northwest,12.3,No
2016/02/15,03:10,0.460,0.268,0.481,0.432,0.399,0.220,0.191,northwest,11.8,No
2016/02/15,03:20,0.458,0.268,0.479,0.433,0.398,0.220,0.193,west-northwest,11.2,No
2016/02/15,03:30,0.459,0.266,0.481,0.432,0.398,0.220,0.190,northwest,12.3,No
2016/02/15,03:40,0.460,0.267,0.479,0.434,0.398,0.220,0.191,northwest,11.8,No
2016/02/15,03:50,0.458,0.266,0.480,0.434,0.398,0.220,0.192,north-northwest,12.9,No
2016/02/15,04:00,0.460,0.266,0.481,0.432,0.397,0.219,0.190,northwest,11.1,No
2016/02/15,04:10,0.460,0.268,0.480,0.435,0.396,0.219,0.191,northwest,10.4,No
2016/02/15,04:20,0.458,0.266,0.479,0.432,0.397,0.219,0.190,north-northwest,9.8,No
2016/02/15,04:30,0.461,0.267,0.481,0.432,0.398,0.218,0.191,northwest,8.1,No
2016/02/15,04:40,0.459,0.268,0.480,0.433,0.397,0.219,0.190,north-northwest,8.7,No
2016/02/15,04:50,0.460,0.268,0.480,0.432,0.399,0.218,0.191,north-northwest,10.0,No
2016/02/15,05:00,0.459,0.267,0.481,0.432,0.397,0.219,0.191,north,7.7,No
2016/02/15,05:10,0.457,0.267,0.478,0.434,0.397,0.219,0.190,north,7.6,No
2016/02/15,05:20,0.459,0.267,0.480,0.430,0.399,0.219,0.190,north,10.3,No
2016/02/15,05:30,0.459,0.267,0.480,0.433,0.397,0.219,0.191,north,10.4,No
2016/02/15,05:40,0.457,0.267,0.479,0.433,0.397,0.219,0.190,north-northwest,9.3,No
2016/02/15,05:50,0.460,0.267,0.481,0.430,0.398,0.219,0.191,north-northwest,8.7,No
2016/02/15,06:00,0.459,0.267,0.481,0.434,0.398,0.218,0.191,north-northwest,7.5,No
2016/02/15,06:10,0.458,0.267,0.479,0.431,0.396,0.220,0.192,north,7.3,No
2016/02/15,06:20,0.460,0.268,0.482,0.431,0.399,0.219,0.191,north-northwest,7.5,No
2016/02/15,06:30,0.460,0.267,0.477,0.434,0.398,0.220,0.190,north,5.7,No
2016/02/15,06:40,0.457,0.267,0.479,0.433,0.397,0.219,0.190,north,5.9,No
2016/02/15,06:50,0.461,0.267,0.481,0.432,0.399,0.218,0.190,north,5.4,No
2016/02/15,07:00,0.459,0.267,0.479,0.432,0.398,0.219,0.191,north,4.1,No
2016/02/15,07:10,0.457,0.266,0.480,0.431,0.396,0.217,0.191,north,3.4,No
2016/02/15,07:20,0.460,0.268,0.479,0.430,0.397,0.219,0.191,north,4.9,No
2016/02/15,07:30,0.459,0.266,0.478,0.433,0.399,0.219,0.190,north,7.0,No
2016/02/15,07:40,0.460,0.266,0.479,0.432,0.396,0.218,0.191,north,4.5,No
2016/02/15,07:50,0.460,0.267,0.480,0.429,0.397,0.219,0.190,north,5.9,No
2016/02/15,08:00,0.458,0.265,0.478,0.431,0.397,0.219,0.191,north,7.1,No
2016/02/15,08:10,0.458,0.266,0.481,0.432,0.396,0.219,0.190,north,8.7,No
2016/02/15,08:20,0.462,0.267,0.479,0.431,0.397,0.219,0.190,north,7.8,No
2016/02/15,08:30,0.460,0.266,0.480,0.433,0.398,0.218,0.190,north,6.3,No
2016/02/15,08:40,0.458,0.267,0.481,0.431,0.396,0.220,0.190,north,8.4,No
2016/02/15,08:50,0.461,0.267,0.478,0.432,0.395,0.220,0.190,north,6.7,No
2016/02/15,09:00,0.459,0.267,0.478,0.432,0.398,0.218,0.191,north-northwest,6.0,No
2016/02/15,09:10,0.459,0.267,0.480,0.431,0.397,0.219,0.189,north-northwest,7.6,Yes
2016/02/15,09:20,0.460,0.266,0.478,0.433,0.396,0.220,0.190,north-northwest,7.7,No
2016/02/15,09:30,0.459,0.268,0.480,0.433,0.398,0.219,0.190,north,7.4,No
2016/02/15,09:40,0.460,0.268,0.481,0.431,0.397,0.218,0.190,north-northwest,10.1,No
2016/02/15,09:50,0.460,0.266,0.480,0.432,0.397,0.219,0.190,north-northwest,7.5,No
2016/02/15,10:00,0.460,0.267,0.479,0.431,0.398,0.219,0.191,north-northwest,7.6,No
2016/02/15,10:10,0.461,0.268,0.480,0.431,0.398,0.219,0.192,north-northwest,6.4,No
2016/02/15,10:20,0.461,0.267,0.479,0.432,0.395,0.219,0.190,north-northwest,7.4,No
2016/02/15,10:30,0.460,0.267,0.479,0.431,0.397,0.220,0.192,north-northwest,7.7,No
2016/02/15,10:40,0.459,0.268,0.481,0.432,0.397,0.219,0.190,north,8.4,No
2016/02/15,10:50,0.460,0.267,0.480,0.433,0.396,0.219,0.192,north-northwest,7.8,No
2016/02/15,11:00,0.460,0.267,0.481,0.431,0.397,0.220,0.191,north-northwest,7.3,No
2016/02/15,11:10,0.458,0.268,0.480,0.431,0.398,0.219,0.190,north-northwest,6.5,No
2016/02/15,11:20,0.460,0.268,0.478,0.434,0.398,0.219,0.191,north-northwest,6.7,No
2016/02/15,11:30,0.459,0.267,0.479,0.432,0.397,0.219,0.192,north-northwest,8.2,Yes
2016/02/15,11:40,0.460,0.267,0.483,0.434,0.399,0.220,0.192,north-northwest,7.6,Yes
2016/02/15,11:50,0.462,0.269,0.480,0.434,0.399,0.220,0.192,north-northwest,8.1,Yes
2016/02/15,12:00,0.460,0.269,0.481,0.431,0.399,0.220,0.192,north-northwest,8.8,Yes
2016/02/15,12:10,0.460,0.268,0.484,0.434,0.398,0.220,0.192,north-northwest,7.3,No
2016/02/15,12:20,0.462,0.269,0.482,0.434,0.399,0.221,0.193,north-northwest,7.9,No
2016/02/15,12:30,0.462,0.269,0.482,0.433,0.399,0.220,0.191,north-northwest,6.7,No
2016/02/15,12:40,0.460,0.267,0.483,0.431,0.398,0.220,0.192,north-northwest,9.2,No
2016/02/15,12:50,0.462,0.267,0.482,0.433,0.399,0.221,0.191,north-northwest,8.9,No
2016/02/15,13:00,0.461,0.268,0.480,0.431,0.397,0.220,0.192,north-northwest,7.7,No
2016/02/15,13:10,0.459,0.268,0.480,0.430,0.397,0.220,0.191,north-northwest,7.9,No
2016/02/15,13:20,0.461,0.267,0.481,0.433,0.399,0.220,0.192,north-northwest,6.9,No
2016/02/15,13:30,0.462,0.267,0.478,0.433,0.398,0.220,0.191,north-northwest,4.7,No
2016/02/15,13:40,0.461,0.269,0.481,0.432,0.398,0.219,0.191,north-northwest,4.5,No
2016/02/15,13:50,0.461,0.268,0.481,0.432,0.398,0.221,0.191,northwest,4.3,No
2016/02/15,14:00,0.461,0.268,0.479,0.432,0.397,0.220,0.191,north,4.4,No
2016/02/15,14:10,0.458,0.268,0.480,0.433,0.398,0.219,0.191,north-northwest,6.4,No
2016/02/15,14:20,0.458,0.268,0.480,0.433,0.398,0.219,0.191,north-northwest,5.8,No
2016/02/15,14:30,0.460,0.266,0.478,0.432,0.399,0.219,0.191,north,8.1,No
2016/02/15,14:40,0.460,0.266,0.483,0.431,0.398,0.219,0.192,north-northwest,7.3,No
2016/02/15,14:50,0.458,0.267,0.480,0.433,0.398,0.220,0.192,north-northwest,9.2,No
2016/02/15,15:00,0.459,0.269,0.479,0.434,0.399,0.219,0.190,north,9.5,No
2016/02/15,15:10,0.459,0.266,0.481,0.432,0.398,0.219,0.191,north,7.9,No
2016/02/15,15:20,0.459,0.267,0.480,0.433,0.397,0.219,0.191,north-northwest,5.5,No
2016/02/15,15:30,0.459,0.267,0.480,0.431,0.397,0.219,0.192,north,7.7,Yes
2016/02/15,15:40,0.459,0.268,0.479,0.430,0.397,0.219,0.190,north,5.9,No
2016/02/15,15:50,0.460,0.266,0.479,0.432,0.398,0.218,0.191,north,3.6,No
2016/02/15,16:00,0.459,0.267,0.480,0.433,0.396,0.219,0.191,north,3.9,No
2016/02/15,16:10,0.459,0.267,0.478,0.431,0.397,0.218,0.191,north-northeast,4.5,No
2016/02/15,16:20,0.458,0.267,0.478,0.431,0.396,0.218,0.192,north,3.3,No
2016/02/15,16:30,0.457,0.267,0.479,0.431,0.396,0.218,0.190,north,3.6,No
2016/02/15,16:40,0.459,0.267,0.479,0.431,0.396,0.219,0.190,north,3.1,No
2016/02/15,16:50,0.459,0.265,0.478,0.432,0.396,0.219,0.192,-,CALM,No
2016/02/15,17:00,0.460,0.268,0.479,0.431,0.397,0.219,0.190,north-northeast,2.7,No
2016/02/15,17:10,0.458,0.267,0.480,0.433,0.398,0.218,0.192,north-northeast,3.7,No
2016/02/15,17:20,0.458,0.267,0.479,0.431,0.397,0.218,0.190,north-northeast,3.6,No
2016/02/15,17:30,0.460,0.266,0.479,0.431,0.397,0.217,0.191,north-northeast,3.2,No
2016/02/15,17:40,0.458,0.267,0.480,0.431,0.399,0.218,0.192,north,3.3,No
2016/02/15,17:50,0.458,0.269,0.478,0.432,0.397,0.219,0.190,north,2.0,No
2016/02/15,18:00,0.458,0.267,0.478,0.431,0.396,0.218,0.191,-,CALM,No
2016/02/15,18:10,0.458,0.266,0.479,0.430,0.396,0.218,0.191,-,CALM,No
2016/02/15,18:20,0.458,0.266,0.479,0.434,0.397,0.219,0.190,north,0.6,No
2016/02/15,18:30,0.458,0.267,0.479,0.433,0.395,0.218,0.191,-,CALM,No
2016/02/15,18:40,0.458,0.267,0.479,0.431,0.396,0.218,0.190,-,CALM,No
2016/02/15,18:50,0.460,0.265,0.480,0.433,0.397,0.218,0.192,north-northwest,2.2,No
2016/02/15,19:00,0.458,0.265,0.478,0.432,0.399,0.218,0.191,north-northwest,2.8,No
2016/02/15,19:10,0.459,0.267,0.479,0.432,0.396,0.219,0.191,north-northwest,1.3,No
2016/02/15,19:20,0.459,0.267,0.480,0.431,0.396,0.219,0.190,north-northwest,3.1,No
2016/02/15,19:30,0.459,0.266,0.478,0.433,0.395,0.220,0.190,north,3.7,No
2016/02/15,19:40,0.457,0.265,0.477,0.431,0.397,0.218,0.192,north-northwest,1.6,No
2016/02/15,19:50,0.457,0.267,0.480,0.431,0.397,0.218,0.191,northwest,0.9,No
2016/02/15,20:00,0.459,0.267,0.481,0.431,0.395,0.219,0.190,north-northeast,1.3,No
2016/02/15,20:10,0.458,0.266,0.478,0.434,0.397,0.219,0.191,northwest,1.5,No
2016/02/15,20:20,0.458,0.266,0.478,0.432,0.398,0.221,0.190,north-northwest,2.5,No
2016/02/15,20:30,0.458,0.267,0.480,0.433,0.396,0.219,0.191,north-northwest,2.2,No
2016/02/15,20:40,0.456,0.265,0.480,0.433,0.395,0.219,0.191,north-northwest,2.5,No
2016/02/15,20:50,0.456,0.267,0.478,0.433,0.397,0.220,0.191,north-northwest,1.3,No
2016/02/15,21:00,0.456,0.266,0.479,0.432,0.398,0.218,0.190,north-northeast,1.7,No
2016/02/15,21:10,0.458,0.267,0.478,0.433,0.397,0.219,0.191,north,1.0,No
2016/02/15,21:20,0.458,0.267,0.478,0.431,0.396,0.219,0.190,-,CALM,No
2016/02/15,21:30,0.456,0.266,0.480,0.432,0.395,0.220,0.190,-,CALM,No
2016/02/15,21:40,0.456,0.266,0.478,0.433,0.397,0.220,0.191,-,CALM,No
2016/02/15,21:50,0.459,0.266,0.479,0.432,0.397,0.219,0.190,north,0.7,No
2016/02/15,22:00,0.458,0.266,0.480,0.432,0.398,0.219,0.191,south,1.4,No
2016/02/15,22:10,0.456,0.266,0.480,0.433,0.396,0.219,0.190,south-southeast,1.4,No
2016/02/15,22:20,0.458,0.265,0.479,0.433,0.396,0.218,0.190,north,1.2,No
2016/02/15,22:30,0.458,0.266,0.477,0.433,0.395,0.220,0.190,northwest,1.3,No
2016/02/15,22:40,0.458,0.267,0.480,0.432,0.398,0.219,0.192,north-northwest,1.2,No
2016/02/15,22:50,0.456,0.266,0.479,0.432,0.396,0.219,0.191,southwest,0.6,No
2016/02/15,23:00,0.457,0.266,0.479,0.433,0.397,0.218,0.191,north-northwest,1.8,No
2016/02/15,23:10,0.457,0.265,0.481,0.434,0.397,0.218,0.191,north-northwest,2.5,No
2016/02/15,23:20,0.458,0.266,0.480,0.432,0.397,0.219,0.190,north-northwest,2.4,No
2016/02/15,23:30,0.457,0.266,0.480,0.433,0.397,0.220,0.191,north-northwest,2.1,No
2016/02/15,23:40,0.457,0.267,0.481,0.432,0.397,0.218,0.192,north,2.7,No
2016/02/15,23:50,0.458,0.266,0.478,0.433,0.399,0.218,0.191,north,2.7,No
